"Pseudo-MPEC" for JKe001

Created 2023 Feb 2 21:22:10 UT using Find_Orb

Click here for an explanation of pseudo-MPECs

 
 Astrometry: 
     JKe001 *3C2023 01 17.tOPFm9LclGTj=hbyAstrometry+_w[u)Wn#Y;d^#^gS_4SRapybT09
     JKe001  3C2023 01 17Ki%9+Xyj/Zel74ppO4.RLO_1d8Kb=g3`F'l$6g:VZRj*s1%j`dV$T09
     JKe001  3C2023 01 17VNOkpR+3Qtmhb-xB_Bb;DM@hg^xl:LuX=ld#bwT]jvExtA7Gy1E+T09
     JKe001  3C2023 01 173ni2`)^5V'Yj$3'n0LF^G^Un7f9L2;lLyQa;aCA@gy-nHqtnVA,1T09
     JKe001  3C2023 01 18iDQ\b#bNs/TL`;g!8bu%b(M0TGXdBeu1/mK^0SW?-)YHJZ;2/tN7T09
     JKe001  3C2023 01 18H8EIK/l6^Wye%$I5WZ.dcAf3U'yredacted;dV(U$@!'k0M[I+44T09
     JKe001  3C2023 01 18087yIqa34(T!7[T!7\VoW1Qv$^EcL3M?JhugVcI0`Er;7Ur,2)74T09
     JKe001  3C2023 01 20%pL$3y7ar;A`j/S2LqMrDh/y:oexaSWWZ\j3s++iMkY6bgHh8O:\T14
     JKe001  3C2023 01 20I5XsV4.4khJ5UwA`fH+F^mg`6%6Pb.Tw@MRQ;:?,(iu7fpwS\SVPT14
     JKe001  3C2023 01 20t=@y-pa;J95QEfl_+xANNX;D/H=kUsuOj;NQ2jF\]\4(HA.Yb\atT14
     JKe001  3C2023 01 20Q_)yN.PJ]t?fL+0rBG.V)16J?If!0:-pw`LKoVO,QIL#T6Ov]^,fT14
     JKe001  3C2023 01 20owjhF0C1JP[G7-M,dV8o%?rZU!V9_=Y.:$v:4@K9p,:anAm2x`'#T14
     JKe001  3C2023 01 20%S]4TnMn1a%eS?SskFCQa+y(x1Z88^qku,C3n.Np39ISGvxm@O.KT14
     JKe001  3C2023 01 20Ok#:KpScAx_Mx(;F7i=$]@W*=/Q79:h_s\diiN1hg8@ISg:C^?XPT14
     JKe001  3C2023 01 20du`ofy/(An#YEmaV5NI/wP8y4WclickYmaCBG9cFkAqGE*mlk#[?T14
     JKe001  3C2023 01 21Ljp)A.(/?V'_S(ROU-J/o0;U%vN,Ax5b-qK3(aM5j%Qs48C:Gm$IT09
     JKe001  3C2023 01 21.3)_ai`XBhereGOG'=OCD3Io`8.],UP1Y9xbR:+XTcTUl!\c+%-IT09
     JKe001  3C2023 01 21l1?,I'jU\t@o3?1?3wg%+BL-X588Ca*TZ7#a[for2xUSmCL%b_A:T09
     JKe001  3C2023 01 21!EHM,bx_:#9tn6O)4^\[[b:D!\8'77OD/ZB(@\+Y1SPG\Y5@oJVWT09
     JKe001  3C2023 01 23eT2!l98)BV'Qj$30:rjKKtLa-;\f83+lE,^8DAZT#1D[y/uqS!wMT14
     JKe001  3C2023 01 23'^ZC@6cX#nJb:x^texplanation,;_*v^9qVFrSs7-wXw:jT.oVbT14
     JKe001  3C2023 01 23Wp:ojF0P*,4xXDDPQr*CY[UWuE1]:hEL8_A)_,YjlGBJFfUw^_@uT14

Station data:
(T09) Mauna Kea-UH/Tholen NEO Follow-Up (Subaru)  (N19.825504 W155.476019)
   US/Hawaii. 8.2-m f/2.2 Subaru reflector.
(T14) Mauna Kea-UH/Tholen NEO Follow-Up (CFHT)  (N19.825252 W155.468876)
   US/Hawaii. 3.6-m Canada-France-Hawaii Telescope.

Orbital elements:  JKe001
   Perihelion 2056 May 29.71400 +/- 32132 TT = 17:08:09 (JD 2472148.21400)
Epoch 2023 Jan 23.0 TT = JDT 2459967.5   Ur: 0.9966              AutoNEOCP
M 199.68240478 +/- 390              (J2000 ecliptic)
n   0.01316159 +/- 0.00413          Peri.  208.15886 +/- 290
a  17.7663039 +/- 3.58              Node   308.71101 +/- 4.7
e   0.0157532 +/- 0.829             Incl.   11.96470 +/- 0.9
P  74.89                   H 10.73  G  0.15   U  9.7
q 17.4864264 +/- 17.8    Q 18.0461813 +/- 10.8
21 of 22 observations 2023 Jan. 17-23; mean residual 0".10
Residuals in arcseconds: 
230117 T09  .06-  .14+    230120 T14  .06-  .08+    230121 T09  .09-  .04-    
230117 T09  .02-  .10-    230120 T14  .31+  .06+    230121 T09  .10-  .04+    
230117 T09  .01+  .04+    230120 T14  .08-  .06+    230121 T09  .00   .01-    
230117 T09  .03+  .02-    230120 T14  .06-  .06-    230123 T14  .05+  .00     
230118 T09  .12+  .06+    230120 T14  .14-  .05+    230123 T14  .05+  .01+    
230118 T09( .03-  .38-)   230120 T14  .20+  .14+    230123 T14  .06-  .00     
230118 T09  .08-  .17-    230120 T14  .07+  .09+    
230120 T14  .01+  .26-    230121 T09  .01-  .05-    

Ephemerides (geocentric):
Date (UTC) HH   RA             Dec           delta  r     elong  mag " sig PA
---- --------  ------------   ------------  ------ ------ -----  --- --------
2023 02 02 21  23 22 30.928   +05 07 55.21  18.765 18.030  40.7 23.7 1.41 125
2023 02 02 22  23 22 31.427   +05 07 57.89  18.766 18.030  40.7 23.7 1.42 125
2023 02 02 23  23 22 31.925   +05 08 00.58  18.766 18.030  40.7 23.7 1.43 125
2023 02 03 00  23 22 32.424   +05 08 03.27  18.767 18.030  40.6 23.7 1.44 125
2023 02 03 01  23 22 32.923   +05 08 05.96  18.767 18.030  40.6 23.7 1.45 125
2023 02 03 02  23 22 33.422   +05 08 08.66  18.768 18.030  40.5 23.7 1.46 125
2023 02 03 03  23 22 33.922   +05 08 11.35  18.768 18.030  40.5 23.7 1.47 125
2023 02 03 04  23 22 34.421   +05 08 14.05  18.769 18.030  40.5 23.7 1.48 125
2023 02 03 05  23 22 34.921   +05 08 16.75  18.769 18.030  40.4 23.7 1.49 125
2023 02 03 06  23 22 35.421   +05 08 19.45  18.770 18.030  40.4 23.7 1.50 124
2023 02 03 07  23 22 35.921   +05 08 22.15  18.770 18.030  40.3 23.7 1.51 124
2023 02 03 08  23 22 36.421   +05 08 24.86  18.770 18.030  40.3 23.7 1.52 124
2023 02 03 09  23 22 36.922   +05 08 27.57  18.771 18.030  40.3 23.7 1.54 124
2023 02 03 10  23 22 37.422   +05 08 30.27  18.771 18.030  40.2 23.7 1.55 124
2023 02 03 11  23 22 37.923   +05 08 32.98  18.772 18.030  40.2 23.7 1.56 124
2023 02 03 12  23 22 38.424   +05 08 35.70  18.772 18.030  40.1 23.7 1.57 124
2023 02 03 13  23 22 38.926   +05 08 38.41  18.773 18.030  40.1 23.7 1.58 124
2023 02 03 14  23 22 39.427   +05 08 41.13  18.773 18.030  40.1 23.7 1.59 124
2023 02 03 15  23 22 39.929   +05 08 43.85  18.774 18.030  40.0 23.7 1.60 124
2023 02 03 16  23 22 40.430   +05 08 46.57  18.774 18.030  40.0 23.7 1.61 123
2023 02 03 17  23 22 40.932   +05 08 49.29  18.775 18.030  39.9 23.7 1.62 123
2023 02 03 18  23 22 41.435   +05 08 52.01  18.775 18.030  39.9 23.7 1.63 123
2023 02 03 19  23 22 41.937   +05 08 54.74  18.775 18.030  39.9 23.7 1.65 123
2023 02 03 20  23 22 42.439   +05 08 57.47  18.776 18.030  39.8 23.7 1.66 123
2023 02 03 21  23 22 42.942   +05 09 00.20  18.776 18.030  39.8 23.7 1.67 123
2023 02 03 22  23 22 43.445   +05 09 02.93  18.777 18.030  39.8 23.7 1.68 123
2023 02 03 23  23 22 43.948   +05 09 05.66  18.777 18.030  39.7 23.7 1.69 123
2023 02 04 00  23 22 44.451   +05 09 08.40  18.778 18.030  39.7 23.7 1.70 123
2023 02 04 01  23 22 44.955   +05 09 11.13  18.778 18.030  39.6 23.7 1.71 123
2023 02 04 02  23 22 45.458   +05 09 13.87  18.779 18.030  39.6 23.7 1.72 123
2023 02 04 03  23 22 45.962   +05 09 16.61  18.779 18.030  39.6 23.7 1.74 122
2023 02 04 04  23 22 46.466   +05 09 19.36  18.780 18.030  39.5 23.7 1.75 122
2023 02 04 05  23 22 46.970   +05 09 22.10  18.780 18.030  39.5 23.7 1.76 122
2023 02 04 06  23 22 47.475   +05 09 24.85  18.780 18.030  39.4 23.7 1.77 122
2023 02 04 07  23 22 47.979   +05 09 27.60  18.781 18.030  39.4 23.7 1.78 122
2023 02 04 08  23 22 48.484   +05 09 30.35  18.781 18.030  39.4 23.7 1.80 122
2023 02 04 09  23 22 48.989   +05 09 33.10  18.782 18.030  39.3 23.7 1.81 122
2023 02 04 10  23 22 49.494   +05 09 35.85  18.782 18.030  39.3 23.7 1.82 122
2023 02 04 11  23 22 49.999   +05 09 38.61  18.783 18.030  39.2 23.7 1.83 122
2023 02 04 12  23 22 50.504   +05 09 41.37  18.783 18.030  39.2 23.7 1.84 122
2023 02 04 13  23 22 51.010   +05 09 44.13  18.784 18.030  39.2 23.7 1.86 122
2023 02 04 14  23 22 51.516   +05 09 46.89  18.784 18.030  39.1 23.7 1.87 121
2023 02 04 15  23 22 52.022   +05 09 49.65  18.784 18.030  39.1 23.7 1.88 121
2023 02 04 16  23 22 52.528   +05 09 52.42  18.785 18.030  39.1 23.7 1.89 121
2023 02 04 17  23 22 53.034   +05 09 55.18  18.785 18.030  39.0 23.7 1.90 121
2023 02 04 18  23 22 53.541   +05 09 57.95  18.786 18.030  39.0 23.7 1.92 121
2023 02 04 19  23 22 54.047   +05 10 00.73  18.786 18.030  38.9 23.7 1.93 121
2023 02 04 20  23 22 54.554   +05 10 03.50  18.787 18.030  38.9 23.7 1.94 121